Location: Unspecified
(47.9110°N, 14.3980°E)
Time: 07:40:27
(UTC+00:00)

ATLAS 3B R/B - Pass Details

Date: 06 August 2020
Orbit: 1016 x 1179 km, 63.8° (Epoch: 22 September)

Event Time Altitude Azimuth Distance (km) Brightness Sun altitude
Exits shadow 22:06:32 37° 115° (ESE) 1,520 3.2 -24.3°
Drops below altitude 10° 22:12:27 10° 52° (NE) 2,827 5.2 -24.5°
Sets 22:15:15 0° 44° (NE) 3,797 6.0 -24.6°
